User: anonymous   Login
Location: Plum
(40.5000°N, 79.7500°W)
Time: 05:14:36
(UTC-05:00)
Language:

MOZ.5/SAFIR/RUBIN 5/SL-8 - Orbit

View from above orbital plane
View from above orbital plane
View from above satellite
View from above satellite

Ground track
Ground track

The orbit data is extracted from the following two-line orbital elements,

1 28898U 05043G   15024.58753029  .00000292  00000-0  70020-4 0   366
2 28898 097.8369 206.9642 0020917 062.0795 338.2673 14.59742751492222
Epoch (UTC): 24 January 2015 14:06:02
Eccentricity: 0.0020917
inclination: 97.8369°
perigee height: 679 km
apogee height: 709 km
right ascension of ascending node: 206.9642°
argument of perigee: 62.0795°
revolutions per day: 14.59742751
mean anomaly at epoch: 338.2673°
orbit number at epoch: 49222

The dashed part of the orbit path shows where the satellite is in the earth's shadow,  

DLR